Camp Pendleton, CA

9:26 PM PDT on May 25, 2017 (GMT -0700)
Camp Pendleton Marine Corps Air Station

Weather History for KNFG - December, 2013

Change the Weather History Date:

Friday, December 6, 2013

  Actual Average Record
Temperature  
Mean Temperature 48 °F -  
Max Temperature 59 °F 66 °F 91 °F (2002)
Min Temperature 36 °F 38 °F 26 °F (2006)
Degree Days  
Heating Degree Days 18    
Moisture  
Dew Point 35 °F    
Average Humidity 66    
Maximum Humidity 86    
Minimum Humidity 41    
Precipitation  
Precipitation 0.00 in - - ()
Sea Level Pressure  
Sea Level Pressure 30.14 in    
Wind  
Wind Speed 2 mph (SSW)    
Max Wind Speed 13 mph    
Max Gust Speed 18 mph    
Visibility 9 miles    
Events      
Averages and records for this station are not official NWS values.
T = Trace of Precipitation, MM = Missing Value Source: NWS Daily Summary

Daily Weather History Graph

Daily Weather History Graph

Search for Another Location

Airport or City:

Trip Planner

Search our weather history database for the weather conditions in past years. The results will help you decide how hot, cold, wet, or windy it might be!

Date:

Astronomy

Dec. 06, 2013 Rise Set
Actual Time 6:39 AM PST 4:41 PM PST
Civil Twilight 6:12 AM PST 5:09 PM PST
Nautical Twilight 5:41 AM PST 5:39 PM PST
Astronomical Twilight 5:11 AM PST 6:09 PM PST
Moon 9:55 AM PST (12/6) 9:10 PM PST (12/6)
Length of Visible Light 10h 56m
Length of Day
10h 02m
Waxing Crescent, 20% of the Moon is Illuminated
Dec 6
Waxing Crescent
Dec 9
First Quarter
Dec 17
Full
Dec 25
Last Quarter
Jan 1
New

Hourly Weather History & Observations

Time (PST) Temp. Dew Point Humidity Pressure Visibility Wind Dir Wind Speed Gust Speed Precip Events Conditions
12:54 AM 36.0 °F 30.9 °F 82% 30.13 in 9.0 mi Calm Calm - N/A   Overcast
1:54 AM 37.0 °F 33.1 °F 86% 30.13 in 10.0 mi Calm Calm - N/A   Overcast
2:54 AM 39.9 °F 35.1 °F 83% 30.13 in 10.0 mi Calm Calm - N/A   Overcast
3:54 AM 41.0 °F 35.1 °F 79% 30.13 in 10.0 mi Calm Calm - N/A   Overcast
4:54 AM 41.0 °F 35.1 °F 79% 30.13 in 10.0 mi Calm Calm - N/A   Overcast
5:54 AM 39.9 °F 35.1 °F 83% 30.14 in 10.0 mi Calm Calm - N/A   Mostly Cloudy
6:54 AM 43.0 °F 35.1 °F 74% 30.16 in 10.0 mi Calm Calm - N/A   Mostly Cloudy
7:54 AM 45.0 °F 37.0 °F 74% 30.17 in 9.0 mi Calm Calm - N/A   Mostly Cloudy
8:54 AM 53.1 °F 37.0 °F 55% 30.19 in 9.0 mi NE 5.8 mph - N/A   Scattered Clouds
9:54 AM 57.0 °F 37.0 °F 47% 30.19 in 9.0 mi Calm Calm - N/A   Scattered Clouds
10:54 AM 57.0 °F 37.0 °F 47% 30.18 in 9.0 mi SSW 10.4 mph - N/A   Mostly Cloudy
11:54 AM 57.9 °F 36.0 °F 44% 30.15 in 9.0 mi SSW 12.7 mph 17.3 mph N/A   Mostly Cloudy
12:54 PM 59.0 °F 36.0 °F 42% 30.13 in 10.0 mi SSW 11.5 mph 18.4 mph N/A   Mostly Cloudy
1:54 PM 59.0 °F 35.1 °F 41% 30.12 in 10.0 mi SW 6.9 mph - N/A   Scattered Clouds
2:54 PM 57.0 °F 37.0 °F 47% 30.11 in 10.0 mi SW 8.1 mph - N/A   Scattered Clouds
3:54 PM 55.9 °F 34.0 °F 44% 30.11 in 9.0 mi SSW 8.1 mph - N/A   Partly Cloudy
4:54 PM 51.1 °F 35.1 °F 54% 30.12 in 10.0 mi Calm Calm - N/A   Partly Cloudy
5:54 PM 46.9 °F 35.1 °F 63% 30.14 in 10.0 mi Calm Calm - N/A   Clear
6:54 PM 43.0 °F 34.0 °F 71% 30.14 in 10.0 mi Calm Calm - N/A   Clear
7:54 PM 39.9 °F 33.1 °F 77% 30.14 in 9.0 mi Calm Calm - N/A   Clear
8:54 PM 42.1 °F 34.0 °F 73% 30.14 in 8.0 mi North - - N/A   Overcast
9:54 PM 42.1 °F 35.1 °F 76% 30.14 in 9.0 mi North - - N/A   Clear
10:54 PM 37.9 °F 32.0 °F 79% 30.14 in 8.0 mi Calm Calm - N/A   Clear
11:54 PM 37.9 °F 32.0 °F 79% 30.15 in 8.0 mi Calm Calm - N/A   Scattered Clouds